Torna al catalogo

COSMOS 1275 DEB

AttivoPO
NORAD 42231·DEBRIS·🇷🇺 Russia

Lanciato Jun 4, 1981 da Plesetsk Cosmodrome

Loading…

Prossimi Passaggi (prossime 24 ore)

TLE

In scadenzaSource: Space-Track

Epoca: Sep 9, 2026, 01:11 UTC

1 42231U 81053UX  26252.04976835  .00003409  00000-0  12222-2 0  9995
2 42231  82.7587 168.4590 0031336 294.6370  65.1555 14.33462065661522

Traccia COSMOS 1275 DEB in tempo reale con AllMySat

Download on the App Store